NIEUW!!! Volg onze weer- en natuurfoto's op Instagram @ weerstationmaaseik.be

WS Maaseik 1 Meer informatie WS Maaseik 1


WS Maaseik 2 Meer informatie WS Maaseik 2


waarschuwing voor Onweer Meer informatie blitzortung!


waarschuwing voor Regen Meer informatie rain snow radar


Bezoek onze andere website:

Vorige versie
weerstation Maaseik


Bezoek ook eens deze sites:

Weerstation Geleen

Weerstation Luyksgestel



Extreme hitte van: 27-05-2018 05:59 tot: 28-05-2018 23:59 waarschuwing voor: Extreme hitte niveau: Geel info button
Onweer van: 27-05-2018 14:00 tot: 28-05-2018 00:59 waarschuwing voor: Onweer niveau: Geel info button
Regen van: 27-05-2018 14:00 tot: 28-05-2018 00:59 waarschuwing voor: Regen niveau: Geel info button

Weather Underground Historische gegevens

Dagelijkse Samenvatting mei 27, 2018 Eenheden:  Metrisch    Engels   Beide
« Vorige Dag
Volgende Dag »
Dagelijkse Wekelijkse Maandelijkse Jaarlijkse Aangepaste
  Huidig: Hoog: Laag: Gemiddeld:
Temperatuur: -7.4 °C -17.8 °C -7.8 °C -7.3 °C
Dauwpunt: -10.4 °C -17.8 °C -10.9 °C -10.7 °C
Vochtigheid: 71 % Humidity % 60 % 67 %
Wind snelheid: 10.3 km/h 0 km/h 0 km/h 8.4 km/h
Windvlaag: 10.3 km/h 0 km/h - -
Wind:NE - - ENE
Luchtdruk: 35793.4 hPa 0 hPa 35793.4 hPa -
Neerslag: 0 mm      
Historical Graphs
 
 
Tabel voor mei 27, 2018
Tijd Temperatuur Dauwpunt Luchtdruk Wind Wind snelheid Windvlaag Vochtigheid Regenval per uur
-17.8 °C -17.8 °C 0 hPa Calm     Humidity % 0 mm
00:02 -5.8 °C -10.3 °C 35793.4 hPa ENE 7.7 km/h 15.6 km/h 60 % 0 mm
00:07 -5.8 °C -10.3 °C 35793.4 hPa NE 5.1 km/h 12.9 km/h 60 % 0 mm
00:12 -5.9 °C -10.4 °C 35793.4 hPa ENE 7.7 km/h 12.9 km/h 60 % 0 mm
00:17 -5.9 °C -10.4 °C 35793.4 hPa ENE 10.3 km/h 10.3 km/h 60 % 0 mm
00:22 -6 °C -10.3 °C 35793.4 hPa ENE 5.1 km/h 10.3 km/h 61 % 0 mm
00:27 -6.1 °C -10.4 °C 35793.4 hPa ENE 5.1 km/h 10.3 km/h 61 % 0 mm
00:32 -6.1 °C -10.4 °C 35793.4 hPa NE 10.3 km/h 10.3 km/h 61 % 0 mm
00:37 -6.1 °C -10.4 °C 35793.4 hPa ENE 10.3 km/h 10.3 km/h 61 % 0 mm
00:42 -6.2 °C -10.4 °C 35793.4 hPa ENE 12.9 km/h 12.9 km/h 62 % 0 mm
00:47 -6.3 °C -10.4 °C 35793.4 hPa NE 12.9 km/h 12.9 km/h 62 % 0 mm
00:52 -6.3 °C -10.5 °C 35793.4 hPa NE 10.3 km/h 12.9 km/h 62 % 0 mm
00:57 -6.4 °C -10.6 °C 35793.4 hPa ENE 12.9 km/h 12.9 km/h 62 % 0 mm
01:02 -6.4 °C -10.5 °C 35793.4 hPa NE 12.9 km/h 12.9 km/h 63 % 0 mm
01:07 -6.5 °C -10.6 °C 35793.4 hPa NE 10.3 km/h 15.6 km/h 63 % 0 mm
01:12 -6.6 °C -10.6 °C 35793.4 hPa NE 12.9 km/h 15.6 km/h 63 % 0 mm
01:17 -6.6 °C -10.5 °C 35793.4 hPa NE 15.6 km/h 15.6 km/h 64 % 0 mm
01:22 -6.7 °C -10.6 °C 35793.4 hPa ENE 12.9 km/h 15.6 km/h 64 % 0 mm
01:27 -6.7 °C -10.6 °C 35793.4 hPa ENE 12.9 km/h 15.6 km/h 64 % 0 mm
01:32 -6.7 °C -10.5 °C 35793.4 hPa NE 10.3 km/h 15.6 km/h 65 % 0 mm
01:37 -6.7 °C -10.5 °C 35793.4 hPa NE 12.9 km/h 12.9 km/h 65 % 0 mm
01:42 -6.8 °C -10.6 °C 35793.4 hPa ENE 18.2 km/h 18.2 km/h 65 % 0 mm
01:47 -6.8 °C -10.6 °C 35793.4 hPa ENE 12.9 km/h 18.2 km/h 65 % 0 mm
01:52 -6.8 °C -10.6 °C 35793.4 hPa ENE 12.9 km/h 18.2 km/h 65 % 0 mm
01:57 -6.8 °C -10.6 °C 35793.4 hPa NE 12.9 km/h 18.2 km/h 65 % 0 mm
02:02 -6.9 °C -10.5 °C 35793.4 hPa NE 10.3 km/h 15.6 km/h 66 % 0 mm
02:07 -6.9 °C -10.5 °C 35793.4 hPa ENE 10.3 km/h 15.6 km/h 66 % 0 mm
02:12 -6.9 °C -10.6 °C 35793.4 hPa ENE 10.3 km/h 15.6 km/h 66 % 0 mm
02:17 -7 °C -10.6 °C 35793.4 hPa NE 12.9 km/h 12.9 km/h 66 % 0 mm
02:22 -7.1 °C -10.7 °C 35793.4 hPa ENE 10.3 km/h 12.9 km/h 66 % 0 mm
02:27 -7.1 °C -10.7 °C 35793.4 hPa East 10.3 km/h 12.9 km/h 66 % 0 mm
02:32 -7.1 °C -10.7 °C 35793.4 hPa East 7.7 km/h 12.9 km/h 66 % 0 mm
02:37 -7.1 °C -10.7 °C 35793.4 hPa NE 7.7 km/h 15.6 km/h 66 % 0 mm
02:42 -7.1 °C -10.7 °C 35793.4 hPa ENE 10.3 km/h 15.6 km/h 66 % 0 mm
02:47 -7.2 °C -10.7 °C 35793.4 hPa ENE 10.3 km/h 15.6 km/h 67 % 0 mm
02:52 -7.2 °C -10.7 °C 35793.4 hPa ENE 7.7 km/h 10.3 km/h 67 % 0 mm
02:57 -7.3 °C -10.8 °C 35793.4 hPa ENE 5.1 km/h 10.3 km/h 67 % 0 mm
03:02 -7.3 °C -10.8 °C 35793.4 hPa Calm   10.3 km/h 67 % 0 mm
03:07 -7.3 °C -10.8 °C 35793.4 hPa ENE 5.1 km/h 7.7 km/h 67 % 0 mm
03:12 -7.4 °C -10.9 °C 35793.4 hPa ENE 7.7 km/h 7.7 km/h 67 % 0 mm
03:17 -7.4 °C -10.7 °C 35793.4 hPa NE 7.7 km/h 7.7 km/h 68 % 0 mm
03:22 -7.4 °C -10.8 °C 35793.4 hPa NE 2.6 km/h 7.7 km/h 68 % 0 mm
03:27 -7.5 °C -10.8 °C 35793.4 hPa NE 2.6 km/h 7.7 km/h 68 % 0 mm
03:32 -7.6 °C -10.9 °C 35793.4 hPa Calm   7.7 km/h 68 % 0 mm
03:37 -7.6 °C -10.8 °C 35793.4 hPa Calm   5.1 km/h 69 % 0 mm
03:42 -7.6 °C -10.8 °C 35793.4 hPa Calm   2.6 km/h 69 % 0 mm
03:47 -7.6 °C -10.8 °C 35793.4 hPa NNW 7.7 km/h   69 % 0 mm
03:52 -7.6 °C -10.8 °C 35793.4 hPa NNE 7.7 km/h 7.7 km/h 69 % 0 mm
03:57 -7.6 °C -10.7 °C 35793.4 hPa NNE 7.7 km/h 7.7 km/h 70 % 0 mm
04:02 -7.6 °C -10.7 °C 35793.4 hPa NE 2.6 km/h 7.7 km/h 70 % 0 mm
04:07 -7.6 °C -10.7 °C 35793.4 hPa Calm   7.7 km/h 70 % 0 mm
04:12 -7.6 °C -10.7 °C 35793.4 hPa ENE 2.6 km/h 7.7 km/h 70 % 0 mm
04:17 -7.6 °C -10.7 °C 35793.4 hPa NE 5.1 km/h 5.1 km/h 70 % 0 mm
04:22 -7.7 °C -10.8 °C 35793.4 hPa ENE 10.3 km/h 10.3 km/h 70 % 0 mm
04:27 -7.7 °C -10.8 °C 35793.4 hPa NE 10.3 km/h 10.3 km/h 70 % 0 mm
04:33 -7.7 °C -10.8 °C 35793.4 hPa ENE 10.3 km/h 10.3 km/h 70 % 0 mm
04:38 -7.7 °C -10.8 °C 35793.4 hPa ENE 5.1 km/h 10.3 km/h 70 % 0 mm
04:43 -7.7 °C -10.8 °C 35793.4 hPa ENE 2.6 km/h 10.3 km/h 70 % 0 mm
04:48 -7.7 °C -10.8 °C 35793.4 hPa ENE 7.7 km/h 10.3 km/h 70 % 0 mm
04:53 -7.7 °C -10.8 °C 35793.4 hPa ESE 7.7 km/h 7.7 km/h 70 % 0 mm
04:58 -7.7 °C -10.8 °C 35793.4 hPa ENE 5.1 km/h 7.7 km/h 70 % 0 mm
05:03 -7.7 °C -10.8 °C 35793.4 hPa ENE 10.3 km/h 10.3 km/h 70 % 0 mm
05:09 -7.7 °C -10.8 °C 35793.4 hPa NE 10.3 km/h 10.3 km/h 70 % 0 mm
05:14 -7.7 °C -10.6 °C 35793.4 hPa NE 15.6 km/h 15.6 km/h 71 % 0 mm
05:19 -7.7 °C -10.6 °C 35793.4 hPa ENE 12.9 km/h 15.6 km/h 71 % 0 mm
05:24 -7.7 °C -10.6 °C 35793.4 hPa ENE 10.3 km/h 15.6 km/h 71 % 0 mm
05:29 -7.7 °C -10.6 °C 35793.4 hPa NE 10.3 km/h 15.6 km/h 71 % 0 mm
05:34 -7.7 °C -10.7 °C 35793.4 hPa NE 5.1 km/h 15.6 km/h 71 % 0 mm
05:39 -7.7 °C -10.7 °C 35793.4 hPa NE 7.7 km/h 10.3 km/h 71 % 0 mm
05:44 -7.8 °C -10.7 °C 35793.4 hPa NNE 2.6 km/h 10.3 km/h 71 % 0 mm
05:50 -7.8 °C -10.8 °C 35793.4 hPa Calm   7.7 km/h 71 % 0 mm
05:55 -7.8 °C -10.7 °C 35793.4 hPa NNE 2.6 km/h 7.7 km/h 72 % 0 mm
06:00 -7.8 °C -10.7 °C 35793.4 hPa NNE 7.7 km/h 7.7 km/h 72 % 0 mm
06:05 -7.8 °C -10.7 °C 35793.4 hPa NE 12.9 km/h 12.9 km/h 72 % 0 mm
06:10 -7.8 °C -10.6 °C 35793.4 hPa ENE 12.9 km/h 12.9 km/h 72 % 0 mm
06:15 -7.7 °C -10.6 °C 35793.4 hPa ENE 10.3 km/h 15.6 km/h 72 % 0 mm
06:20 -7.7 °C -10.5 °C 35793.4 hPa NE 12.9 km/h 18.2 km/h 72 % 0 mm
06:25 -7.6 °C -10.4 °C 35793.4 hPa ENE 10.3 km/h 20.8 km/h 72 % 0 mm
06:31 -7.5 °C -10.3 °C 35793.4 hPa ENE 5.1 km/h 20.8 km/h 72 % 0 mm
06:36 -7.5 °C -10.3 °C 35793.4 hPa ESE 10.3 km/h 20.8 km/h 72 % 0 mm
06:41 -7.5 °C -10.5 °C 35793.4 hPa East 7.7 km/h 12.9 km/h 71 % 0 mm
06:46 -7.4 °C -10.4 °C 35793.4 hPa NE 10.3 km/h 10.3 km/h 71 % 0 mm
Weerstation Maaseik (B)
Gegevens verzameld door Weather Underground - 3 mb

Script ontwikkeld door  Jim McMurry - jmcmurry@mwt.net Aangepast voor de template door  Wim van der Kuil - Leuven-Template.eu

U vindt ons ook hier:

Het Weer Aktueel

Weather Underground

AWEKAS